Flag for Mongolia Weather past 2 weeks in Ulaanbaatar, Mongolia

Now
52 °F

Clear.


Feels Like: 52 °F
Forecast: 50 / 69 °F
Wind: 1 mph from North

Location: Ulan-Bator

Current Time: Sep 5, 2015 at 2:17:12 AM

Latest Report: Sep 5, 2015 at 1:30 AM


Visibility: 10 mi

Pressure: 30.04 "Hg (25.70 "Hg at 1298m altitude)

Humidity: 82%

Dew point: 46 °F

Location of UlaanbaatarLocation

Historic Weather in Ulaanbaatar — Graph

°F

Ulaanbaatar temperature yesterday

Maximum temperature yesterday: 73 °F (at 5:00 PM)
Minimum temperature yesterday: 46 °F (at 4:30 AM)
Average temperature yesterday: 65 °F

Past Weeks' High & Low Weather Summary

 TemperatureHumidityPressure
High86 °F (Aug 23, 5:00 PM)94% (Aug 29, 5:30 AM)30.27 "Hg (Aug 29, 5:30 AM)
Low41 °F (Aug 21, 6:00 AM)13% (Aug 23, 5:00 PM)29.86 "Hg (Aug 22, 5:00 PM)
Average66 °F49%30.06 "Hg
* Reported Aug 21 1:00 AM — Sep 5 1:00 AM, Ulaanbaatar, Weather by CustomWeather, © 2015

Note: Actual official high and low records may vary slightly from our data, if they occured in-between our weather recording intervals... More about our weather records

Advertising

Ulaanbaatar weather history for previous 24 hours

 ConditionsComfort  
Time TempWeatherWind HumidityBarometerVisibility
1:00 AM
Sat, Sep 5
52 °FClear.1 mph82%30.04 "Hg10 mi
12:30 AM52 °FPassing clouds.3 mph88%30.04 "HgN/A
12:00 AM52 °FPassing clouds.No wind82%30.04 "HgN/A
11:30 PM
Fri, Sep 4
54 °FPassing clouds.1 mph82%30.04 "HgN/A
11:00 PM55 °FPassing clouds.1 mph77%30.04 "HgN/A
10:30 PM57 °FPassing clouds.3 mph77%30.04 "HgN/A
10:00 PM59 °FPassing clouds.1 mph77%30.04 "HgN/A
9:30 PM59 °FPassing clouds.3 mph72%30.01 "HgN/A
9:00 PM59 °FScattered clouds.3 mph72%30.01 "HgN/A
8:30 PM61 °FScattered clouds.8 mph68%29.98 "HgN/A
8:00 PM63 °FScattered clouds.10 mph68%29.98 "HgN/A
7:30 PM63 °FScattered clouds.17 mph68%29.95 "HgN/A
7:00 PM66 °FSprinkles. Scattered clouds.17 mph60%29.95 "HgN/A
6:30 PM68 °FScattered clouds.15 mph53%29.92 "HgN/A
6:00 PM72 °FScattered clouds.1 mph36%29.92 "HgN/A
5:30 PM72 °FScattered clouds.10 mph38%29.92 "HgN/A
5:00 PM73 °FScattered clouds.10 mph33%29.92 "HgN/A
4:30 PM72 °FScattered clouds.13 mph38%29.92 "HgN/A
4:00 PM72 °FScattered clouds.15 mph38%29.92 "HgN/A
3:30 PM72 °FScattered clouds.3 mph36%29.92 "HgN/A
3:00 PM70 °FScattered clouds.10 mph43%29.92 "HgN/A
2:30 PM70 °FScattered clouds.10 mph43%29.95 "HgN/A
2:00 PM68 °FScattered clouds.10 mph46%29.95 "HgN/A
1:30 PM68 °FPartly sunny.13 mph46%29.95 "HgN/A
1:00 PM68 °FPartly sunny.15 mph46%29.98 "HgN/A
12:30 PM68 °FLight rain. Partly sunny.15 mph49%29.98 "HgN/A
12:00 PM66 °FLight rain. Partly sunny.13 mph49%29.98 "HgN/A
11:30 AM68 °FScattered clouds.13 mph46%29.98 "HgN/A
11:00 AM66 °FScattered clouds.13 mph49%29.98 "HgN/A
10:30 AM64 °FScattered clouds.10 mph56%29.98 "HgN/A
10:00 AM63 °FScattered clouds.8 mph59%29.98 "HgN/A
9:30 AM63 °FScattered clouds.No wind59%29.98 "HgN/A
9:00 AM61 °FScattered clouds.1 mph63%29.98 "HgN/A
8:30 AM61 °FScattered clouds.1 mph63%29.98 "HgN/A
8:00 AM61 °FPassing clouds.No wind59%29.98 "HgN/A
7:30 AM61 °FPassing clouds.1 mph59%29.98 "HgN/A
6:30 AM63 °FPassing clouds.8 mph56%29.95 "HgN/A
6:00 AM63 °FPassing clouds.6 mph56%29.95 "HgN/A
5:30 AM64 °FPassing clouds.6 mph52%29.95 "HgN/A
5:00 AM66 °FPassing clouds.3 mph46%29.95 "HgN/A
4:30 AM46 °FPassing clouds.13 mph93%29.92 "HgN/A
4:00 AM68 °FPassing clouds.6 mph40%29.92 "HgN/A
3:30 AM66 °FPassing clouds.8 mph46%29.95 "HgN/A
3:00 AM66 °FPassing clouds.17 mph46%29.95 "HgN/A
2:30 AM66 °FPassing clouds.17 mph46%29.95 "HgN/A
2:00 AM66 °FPassing clouds.17 mph49%29.98 "HgN/A
Weather by CustomWeather, © 2015

See weather overviewHow to use our weather pages